International Skating Union - Official Site

ISU World Single Distances Championships 2016
February 11-14, 2016

Draw | Lap Times | Index | Classification

Referee: Daniel  CABELDUC  (SWE)
Starter: Janny  SMEGEN  (NED)
StartTime: EndTime: Air Temp: Ice Temp: Humidity:
19:05 19:57 14.7℃ -6.4℃ 37%
Result 5000m Ladies
Rankings as of Feb 14 2016 2:22PM
Rank: No.: Name: Nation: Time: Behind: Points:
1 224 Martina  Sábliková CZE CZE 6:51.09200m - 20.42 - (20.4)
600m - 52.81 - (32.3)
1000m - 1:25.65 - (32.8)
1400m - 1:58.44 - (32.7)
1800m - 2:31.14 - (32.7)
2200m - 3:03.84 - (32.7)
2600m - 3:36.42 - (32.5)
3000m - 4:08.72 - (32.3)
3400m - 4:41.09 - (32.3)
3800m - 5:13.29 - (32.2)
4200m - 5:45.81 - (32.5)
4600m - 6:18.44 - (32.6)
5000m - 6:51.09 - (32.6)
2 252 Carien  Kleibeuker NED NED 6:54.96200m - 21.37 - (21.3)
600m - 53.25 - (31.8)
1000m - 1:25.82 - (32.5)
1400m - 1:58.35 - (32.5)
1800m - 2:30.91 - (32.5)
2200m - 3:03.45 - (32.5)
2600m - 3:36.37 - (32.9)
3000m - 4:09.33 - (32.9)
3400m - 4:42.31 - (32.9)
3800m - 5:15.23 - (32.9)
4200m - 5:48.45 - (33.2)
4600m - 6:21.61 - (33.1)
5000m - 6:54.96 - (33.3)
3.87
3 255 Irene  Schouten NED NED 6:55.93200m - 20.31 - (20.3)
600m - 52.87 - (32.5)
1000m - 1:26.27 - (33.4)
1400m - 1:59.12 - (32.8)
1800m - 2:31.97 - (32.8)
2200m - 3:04.72 - (32.7)
2600m - 3:37.63 - (32.9)
3000m - 4:10.25 - (32.6)
3400m - 4:43.23 - (32.9)
3800m - 5:16.09 - (32.8)
4200m - 5:49.19 - (33.1)
4600m - 6:22.56 - (33.3)
5000m - 6:55.93 - (33.3)
4.84
4 232 Claudia  Pechstein GER GER 6:58.99200m - 20.50 - (20.5)
600m - 52.10 - (31.6)
1000m - 1:24.89 - (32.7)
1400m - 1:58.01 - (33.1)
1800m - 2:31.14 - (33.1)
2200m - 3:04.26 - (33.1)
2600m - 3:37.56 - (33.3)
3000m - 4:11.13 - (33.5)
3400m - 4:44.83 - (33.7)
3800m - 5:18.97 - (34.1)
4200m - 5:53.04 - (34.0)
4600m - 6:26.39 - (33.3)
5000m - 6:58.99 - (32.6)
7.90
5 214 Isabelle  Weidemann CAN CAN 7:08.35200m - 21.59 - (21.5)
600m - 55.13 - (33.5)
1000m - 1:28.89 - (33.7)
1400m - 2:02.87 - (33.9)
1800m - 2:36.74 - (33.8)
2200m - 3:10.29 - (33.5)
2600m - 3:44.29 - (34.0)
3000m - 4:18.24 - (33.9)
3400m - 4:52.06 - (33.8)
3800m - 5:26.06 - (34.0)
4200m - 6:00.31 - (34.2)
4600m - 6:34.27 - (33.9)
5000m - 7:08.35 - (34.0)
17.26
6 270 Anna  Yurakova RUS RUS 7:08.84200m - 21.12 - (21.1)
600m - 53.80 - (32.6)
1000m - 1:26.79 - (32.9)
1400m - 2:00.28 - (33.4)
1800m - 2:33.45 - (33.1)
2200m - 3:07.28 - (33.8)
2600m - 3:41.42 - (34.1)
3000m - 4:16.09 - (34.6)
3400m - 4:50.75 - (34.6)
3800m - 5:25.48 - (34.7)
4200m - 6:00.12 - (34.6)
4600m - 6:34.87 - (34.7)
5000m - 7:08.84 - (33.9)
17.75
7 231 Bente  Kraus GER GER 7:09.47200m - 21.03 - (21.0)
600m - 54.33 - (33.3)
1000m - 1:28.03 - (33.7)
1400m - 2:01.29 - (33.2)
1800m - 2:35.03 - (33.7)
2200m - 3:08.63 - (33.6)
2600m - 3:42.58 - (33.9)
3000m - 4:16.75 - (34.1)
3400m - 4:51.35 - (34.6)
3800m - 5:25.85 - (34.5)
4200m - 6:00.50 - (34.6)
4600m - 6:35.15 - (34.6)
5000m - 7:09.47 - (34.3)
18.38
8 274 Natalya  Voronina RUS RUS 7:11.95200m - 20.64 - (20.6)
600m - 53.35 - (32.7)
1000m - 1:25.95 - (32.6)
1400m - 1:59.33 - (33.3)
1800m - 2:32.39 - (33.0)
2200m - 3:06.23 - (33.8)
2600m - 3:40.45 - (34.2)
3000m - 4:15.03 - (34.5)
3400m - 4:49.95 - (34.9)
3800m - 5:25.49 - (35.5)
4200m - 6:01.11 - (35.6)
4600m - 6:37.00 - (35.8)
5000m - 7:11.95 - (34.9)
20.86
9 238 Fuyo  Matsuoka JPN JPN 7:14.41200m - 21.38 - (21.3)
600m - 54.50 - (33.1)
1000m - 1:28.20 - (33.7)
1400m - 2:02.76 - (34.5)
1800m - 2:36.94 - (34.1)
2200m - 3:11.45 - (34.5)
2600m - 3:45.71 - (34.2)
3000m - 4:19.93 - (34.2)
3400m - 4:54.36 - (34.4)
3800m - 5:29.00 - (34.6)
4200m - 6:03.96 - (34.9)
4600m - 6:39.20 - (35.2)
5000m - 7:14.41 - (35.2)
23.32
10 241 Nana  Takagi JPN JPN 7:15.51200m - 20.97 - (20.9)
600m - 54.70 - (33.7)
1000m - 1:29.20 - (34.5)
1400m - 2:03.38 - (34.1)
1800m - 2:37.62 - (34.2)
2200m - 3:12.12 - (34.5)
2600m - 3:46.87 - (34.7)
3000m - 4:21.48 - (34.6)
3400m - 4:56.23 - (34.7)
3800m - 5:30.75 - (34.5)
4200m - 6:05.58 - (34.8)
4600m - 6:40.40 - (34.8)
5000m - 7:15.51 - (35.1)
24.42
11 202 Jelena  Peeters BEL BEL 7:17.88200m - 20.98 - (20.9)
600m - 54.41 - (33.4)
1000m - 1:30.01 - (35.6)
1400m - 2:04.47 - (34.4)
1800m - 2:38.66 - (34.1)
2200m - 3:13.07 - (34.4)
2600m - 3:47.28 - (34.2)
3000m - 4:21.71 - (34.4)
3400m - 4:56.48 - (34.7)
3800m - 5:31.45 - (34.9)
4200m - 6:06.30 - (34.8)
4600m - 6:41.90 - (35.6)
5000m - 7:17.88 - (35.9)
26.79
12 212 Josie  Spence CAN CAN 7:29.17200m - 20.88 - (20.8)
600m - 53.94 - (33.0)
1000m - 1:27.36 - (33.4)
1400m - 2:01.05 - (33.6)
1800m - 2:34.90 - (33.8)
2200m - 3:09.73 - (34.8)
2600m - 3:45.14 - (35.4)
3000m - 4:21.19 - (36.0)
3400m - 4:57.71 - (36.5)
3800m - 5:34.75 - (37.0)
4200m - 6:12.38 - (37.6)
4600m - 6:50.62 - (38.2)
5000m - 7:29.17 - (38.5)
38.08